FW8733 Weather Reports


time (UTC)temp
C
wind
direction
speed
KPH
gust
KPH
rain 1hr
cm
rain 24hr
cm
rain mn
cm
humidity
%
barometer
mb
20260508043908 16 250 0.0 0.0 0.00 0.00 0.00 82 1019.1
20260508043406 16 250 1.6 1.6 0.00 0.00 0.00 82 1019.1
20260508042902 16 235 0.0 1.6 0.00 0.00 0.00 82 1019.4
20260508042400 16 250 0.0 0.0 0.00 0.00 0.00 82 1018.2
20260508041857 16 250 0.0 0.0 0.00 0.00 0.00 83 1018.2
20260508041353 16 194 1.6 1.6 0.00 0.00 0.00 84 1017.7
20260508040850 16 194 0.0 0.0 0.00 0.00 0.00 85 1018.3
20260508040347 16 194 0.0 0.0 0.00 0.00 0.00 84 1018.6
20260508035845 16 194 0.0 0.0 0.00 0.00 0.00 84 1019.0
20260508035342 16 194 0.0 0.0 0.00 0.00 0.00 84 1018.8
20260508034839 16 194 0.0 0.0 0.00 0.00 0.00 84 1018.9
20260508034336 16 194 0.0 0.0 0.00 0.00 0.00 84 1019.0
20260508033832 16 194 0.0 0.0 0.00 0.00 0.00 84 1019.0
20260508033331 16 194 0.0 0.0 0.00 0.00 0.00 83 1019.2
20260508032828 16 194 0.0 0.0 0.00 0.00 0.00 82 1019.5
20260508032325 16 194 0.0 0.0 0.00 0.00 0.00 83 1019.4
20260508031821 16 194 0.0 0.0 0.00 0.00 0.00 82 1019.6
20260508031318 16 194 0.0 0.0 0.00 0.00 0.00 80 1019.7
20260508030815 16 194 0.0 0.0 0.00 0.00 0.00 80 1019.8
20260508030312 16 194 0.0 0.0 0.00 0.00 0.00 80 1019.4
20260508025808 16 194 0.0 0.0 0.00 0.00 0.00 80 1019.5
20260508025306 16 194 0.0 0.0 0.00 0.00 0.00 80 1019.2
20260508024802 17 194 0.0 0.0 0.00 0.00 0.00 79 1019.0
20260508024259 17 194 0.0 0.0 0.00 0.00 0.00 77 1018.4
20260508023756 17 193 1.6 1.6 0.00 0.00 0.00 77 1018.3
20260508023253 17 193 0.0 0.0 0.00 0.00 0.00 77 1018.0
20260508022749 17 193 0.0 0.0 0.00 0.00 0.00 76 1018.2
20260508022245 17 193 0.0 0.0 0.00 0.00 0.00 75 1018.0
20260508021743 17 193 0.0 1.6 0.00 0.00 0.00 75 1017.7
20260508021238 17 150 4.8 4.8 0.00 0.00 0.00 74 1017.0
20260508020735 17 208 6.4 8.0 0.00 0.00 0.00 74 1017.2
20260508020233 17 205 1.6 1.6 0.00 0.00 0.00 74 1017.2
20260508015729 17 204 1.6 1.6 0.00 0.00 0.00 75 1017.4
20260508015227 17 216 0.0 0.0 0.00 0.00 0.00 76 1017.3
20260508014723 17 216 0.0 1.6 0.00 0.00 0.00 75 1017.5
20260508014220 17 206 4.8 4.8 0.00 0.00 0.00 74 1017.4
20260508013716 17 217 0.0 0.0 0.00 0.00 0.00 74 1017.4
20260508013212 17 216 3.2 3.2 0.00 0.00 0.00 74 1017.0
20260508012710 17 195 4.8 4.8 0.00 0.00 0.00 74 1017.0
20260508012207 17 217 1.6 1.6 0.00 0.00 0.00 74 1017.0
20260508011705 18 174 4.8 8.0 0.00 0.00 0.00 74 1017.4
20260508011202 18 183 0.0 3.2 0.00 0.00 0.00 74 1017.5
20260508010659 18 202 1.6 1.6 0.00 0.00 0.00 73 1017.3
20260508010156 18 207 1.6 3.2 0.00 0.00 0.00 73 1017.5
20260508005654 18 203 0.0 0.0 0.00 0.00 0.00 73 1017.7
20260508005150 18 210 0.0 0.0 0.00 0.00 0.00 73 1017.9
20260508004646 18 210 1.6 3.2 0.00 0.00 0.00 72 1017.3
20260508004142 18 195 0.0 0.0 0.00 0.00 0.00 73 1017.9
20260508003639 18 190 1.6 3.2 0.00 0.00 0.00 71 1017.7
20260508003137 18 210 1.6 1.6 0.00 0.00 0.00 71 1017.6
20260508002633 18 211 0.0 1.6 0.00 0.00 0.00 70 1017.6
20260508002131 18 261 1.6 3.2 0.00 0.00 0.00 70 1018.1
20260508001626 18 209 1.6 3.2 0.00 0.00 0.00 69 1017.9
20260508001122 18 199 0.0 0.0 0.00 0.00 0.00 69 1018.1
20260508000618 18 186 4.8 4.8 0.00 0.00 0.00 70 1018.3
20260508000116 19 194 0.0 0.0 0.00 0.00 0.00 74 1018.3
20260507235613 19 194 0.0 0.0 0.00 0.00 0.00 74 1018.4
20260507235110 19 194 0.0 0.0 0.00 0.00 0.00 73 1018.4
20260507234606 19 210 1.6 1.6 0.00 0.00 0.00 72 1018.6
20260507234103 19 253 0.0 0.0 0.00 0.00 0.00 73 1019.0
20260507233559 19 211 0.0 1.6 0.00 0.00 0.00 71 1018.8
20260507233059 19 246 0.0 0.0 0.00 0.00 0.00 71 1018.6
20260507232554 20 155 4.8 8.0 0.00 0.00 0.00 68 1018.7
20260507232052 20 198 1.6 4.8 0.00 0.00 0.00 68 1018.7
20260507231548 20 210 1.6 3.2 0.00 0.00 0.00 68 1018.9
20260507231045 20 195 0.0 1.6 0.00 0.00 0.00 66 1018.6
20260507230541 20 210 0.0 1.6 0.00 0.00 0.00 68 1018.8
20260507230038 20 200 3.2 3.2 0.00 0.00 0.00 68 1018.5
20260507225533 20 354 1.6 3.2 0.00 0.00 0.00 68 1019.0
20260507225030 20 247 0.0 0.0 0.00 0.00 0.00 67 1019.1
20260507224526 20 247 0.0 0.0 0.00 0.00 0.00 66 1018.9
20260507224022 20 246 0.0 0.0 0.00 0.00 0.00 70 1018.8
20260507223519 20 222 0.0 1.6 0.00 0.00 0.00 68 1019.0
20260507223016 20 232 0.0 0.0 0.00 0.00 0.00 70 1019.1
20260507222513 20 232 0.0 0.0 0.00 0.00 0.00 69 1019.2
20260507222009 20 232 0.0 0.0 0.00 0.00 0.00 67 1019.4
20260507221506 20 232 0.0 0.0 0.00 0.00 0.00 69 1019.4
20260507221002 20 232 1.6 1.6 0.00 0.00 0.00 70 1019.3
20260507220500 20 231 1.6 3.2 0.00 0.00 0.00 68 1019.5
20260507215956 20 232 0.0 1.6 0.00 0.00 0.00 67 1019.0
20260507215453 20 239 0.0 1.6 0.00 0.00 0.00 68 1019.4
20260507214950 20 227 0.0 0.0 0.00 0.00 0.00 68 1019.4
20260507214447 20 189 0.0 1.6 0.00 0.00 0.00 68 1019.4
20260507213943 20 201 0.0 0.0 0.00 0.00 0.00 69 1019.3
20260507213440 20 201 0.0 0.0 0.00 0.00 0.00 68 1019.5
20260507212937 21 201 0.0 0.0 0.00 0.00 0.00 66 1019.6
20260507212432 21 200 3.2 3.2 0.00 0.00 0.00 66 1020.0
20260507211930 22 238 1.6 1.6 0.00 0.00 0.00 62 1019.9
20260507211426 21 256 0.0 0.0 0.00 0.00 0.00 66 1019.6
20260507210923 20 243 0.0 0.0 0.00 0.00 0.00 70 1019.6
20260507210420 20 240 1.6 1.6 0.00 0.00 0.00 67 1019.6
20260507205917 20 188 1.6 8.0 0.00 0.00 0.00 70 1019.5
20260507205414 20 215 3.2 4.8 0.00 0.00 0.00 67 1019.3
20260507204910 20 218 0.0 0.0 0.00 0.00 0.00 70 1019.6
20260507204407 19 218 0.0 0.0 0.00 0.00 0.00 71 1019.6
20260507203904 19 218 0.0 0.0 0.00 0.00 0.00 72 1019.7
20260507203402 19 192 0.0 0.0 0.00 0.00 0.00 71 1020.1
20260507202858 19 188 1.6 1.6 0.00 0.00 0.00 69 1020.0
20260507202355 20 201 0.0 0.0 0.00 0.00 0.00 71 1019.9
20260507201850 20 192 3.2 4.8 0.00 0.00 0.00 71 1020.2
20260507201346 20 243 0.0 0.0 0.00 0.00 0.00 70 1020.2
20260507200842 20 229 0.0 0.0 0.00 0.00 0.00 70 1020.4
20260507200339 20 216 0.0 1.6 0.00 0.00 0.00 71 1020.5
20260507195835 20 216 1.6 1.6 0.00 0.00 0.00 68 1020.2
20260507195332 20 231 1.6 1.6 0.00 0.00 0.00 69 1020.6
20260507194830 20 216 0.0 1.6 0.00 0.00 0.00 69 1020.5
20260507194326 19 226 0.0 0.0 0.00 0.00 0.00 71 1020.5
20260507193822 20 265 3.2 3.2 0.00 0.00 0.00 70 1020.4
20260507193320 20 201 4.8 4.8 0.00 0.00 0.00 69 1020.4
20260507192815 20 209 3.2 8.0 0.00 0.00 0.00 69 1020.8
20260507192312 20 257 1.6 3.2 0.00 0.00 0.00 70 1020.9
20260507191808 20 228 0.0 1.6 0.00 0.00 0.00 71 1021.4
20260507191305 19 216 0.0 1.6 0.00 0.00 0.00 72 1021.1
20260507190802 18 217 0.0 0.0 0.00 0.00 0.00 75 1021.1
20260507190301 18 220 0.0 0.0 0.00 0.00 0.00 74 1021.1
20260507185759 18 221 0.0 1.6 0.00 0.00 0.00 74 1021.0
20260507185255 18 220 4.8 8.0 0.00 0.00 0.00 75 1021.0
20260507184752 18 221 1.6 1.6 0.00 0.00 0.00 76 1020.8
20260507184250 18 226 3.2 4.8 0.00 0.00 0.00 75 1021.0
20260507183747 18 209 0.0 1.6 0.00 0.00 0.00 77 1020.7
20260507183244 18 217 1.6 3.2 0.00 0.00 0.00 76 1020.7
20260507182741 18 175 4.8 8.0 0.00 0.00 0.00 75 1020.4
20260507182236 18 186 4.8 9.7 0.00 0.00 0.00 74 1020.9
20260507181733 18 237 1.6 1.6 0.00 0.00 0.00 75 1021.1
20260507181230 18 224 0.0 1.6 0.00 0.00 0.00 76 1021.0
20260507180726 18 197 1.6 3.2 0.00 0.00 0.00 78 1021.2
20260507180223 18 235 0.0 0.0 0.00 0.00 0.00 78 1021.1
20260507175719 18 238 0.0 1.6 0.00 0.00 0.00 79 1021.4
20260507175216 18 224 0.0 0.0 0.00 0.00 0.00 79 1020.9
20260507174713 18 196 1.6 3.2 0.00 0.00 0.00 77 1020.8
20260507174211 18 204 0.0 0.0 0.00 0.00 0.00 77 1020.9
20260507173708 18 275 0.0 1.6 0.00 0.00 0.00 77 1021.1
20260507173205 18 203 1.6 1.6 0.00 0.00 0.00 79 1021.4
20260507172702 17 207 0.0 1.6 0.00 0.00 0.00 79 1021.7
20260507172159 17 243 1.6 1.6 0.00 0.00 0.00 81 1021.2
20260507171658 17 240 0.0 0.0 0.00 0.00 0.00 83 1021.8
20260507171156 17 240 0.0 0.0 0.00 0.00 0.00 83 1021.8
20260507170653 16 237 0.0 0.0 0.00 0.00 0.00 84 1021.4
20260507170150 16 292 4.8 4.8 0.00 0.00 0.00 85 1020.8
20260507165646 16 215 1.6 1.6 0.00 0.00 0.00 87 1021.0
20260507165142 16 226 0.0 0.0 0.00 0.00 0.00 88 1020.5
20260507164638 16 149 0.0 1.6 0.00 0.00 0.00 89 1021.0
20260507164135 15 207 0.0 0.0 0.00 0.00 0.00 90 1021.2
20260507163632 15 306 4.8 4.8 0.00 0.00 0.00 90 1021.9
20260507163130 15 205 0.0 1.6 0.00 0.00 0.00 91 1021.6
20260507162626 15 278 1.6 3.2 0.00 0.00 0.00 92 1021.6
20260507162122 15 220 0.0 0.0 0.00 0.00 0.00 92 1021.9
20260507161619 15 51 1.6 3.2 0.00 0.00 0.00 91 1022.1
20260507161116 15 213 0.0 0.0 0.00 0.00 0.00 91 1022.1
20260507160612 15 226 1.6 1.6 0.00 0.00 0.00 90 1022.3
20260507160108 15 234 0.0 0.0 0.00 0.00 0.00 90 1023.3
20260507155603 15 239 0.0 0.0 0.00 0.00 0.00 90 1023.1
20260507155101 15 239 0.0 0.0 0.00 0.00 0.00 90 1023.0
20260507154558 15 261 0.0 1.6 0.00 0.00 0.00 90 1022.5
20260507154055 15 222 1.6 1.6 0.00 0.00 0.00 89 1021.4
20260507153551 15 215 3.2 4.8 0.00 0.00 0.00 89 1021.9
20260507153048 15 261 0.0 0.0 0.00 0.00 0.00 89 1022.2
20260507152544 15 224 1.6 1.6 0.00 0.00 0.00 90 1022.1
20260507152040 15 230 0.0 1.6 0.00 0.00 0.00 90 1022.3
20260507151536 15 238 0.0 0.0 0.00 0.00 0.00 90 1022.4
20260507151033 15 249 0.0 0.0 0.00 0.00 0.00 91 1022.3
20260507150530 15 195 0.0 0.0 0.00 0.00 0.00 91 1022.2
20260507150028 15 238 0.0 1.6 0.00 0.00 0.00 92 1022.4
20260507145522 15 257 0.0 0.0 0.00 0.00 0.00 92 1022.7
20260507145021 15 239 0.0 0.0 0.00 0.00 0.00 92 1022.7
20260507144517 15 231 0.0 0.0 0.00 0.00 0.00 92 1022.6
20260507144014 15 223 1.6 1.6 0.00 0.00 0.00 93 1022.6
20260507143511 15 254 0.0 0.0 0.00 0.00 0.00 93 1022.7
20260507143009 15 225 0.0 0.0 0.00 0.00 0.00 93 1022.6
20260507142504 15 207 1.6 1.6 0.00 0.00 0.00 92 1022.5
20260507142001 15 224 0.0 0.0 0.00 0.00 0.00 93 1022.2
20260507141456 15 239 0.0 1.6 0.00 0.00 0.00 93 1022.2
20260507140954 15 261 0.0 3.2 0.00 0.00 0.00 93 1022.2
20260507140450 14 258 1.6 1.6 0.00 0.00 0.00 93 1022.1
20260507135948 14 297 4.8 4.8 0.00 0.00 0.00 93 1022.3
20260507135444 15 309 1.6 1.6 0.00 0.00 0.00 93 1022.1
20260507134942 14 228 0.0 0.0 0.00 0.00 0.00 93 1022.2
20260507134438 14 234 0.0 0.0 0.00 0.00 0.00 93 1022.3
20260507133934 14 212 1.6 3.2 0.00 0.00 0.00 93 1021.8
20260507133431 15 214 0.0 0.0 0.00 0.00 0.00 93 1021.9
20260507132929 14 244 1.6 3.2 0.00 0.00 0.00 93 1021.6
20260507132425 14 306 1.6 4.8 0.00 0.00 0.00 93 1021.7
20260507131922 15 218 1.6 1.6 0.00 0.00 0.00 93 1021.2
20260507131419 14 213 1.6 1.6 0.00 0.00 0.00 94 1021.2
20260507130916 14 233 0.0 1.6 0.00 0.00 0.00 94 1021.6
20260507130413 14 232 0.0 0.0 0.00 0.00 0.00 94 1021.6
20260507125912 14 222 3.2 3.2 0.00 0.00 0.00 94 1021.5
20260507125409 14 325 3.2 8.0 0.00 0.00 0.00 93 1021.5
20260507124906 14 224 0.0 0.0 0.00 0.00 0.00 93 1021.8
20260507124402 14 216 1.6 1.6 0.00 0.00 0.00 93 1021.4
20260507123901 14 249 0.0 1.6 0.00 0.00 0.00 93 1021.4
20260507123357 14 185 1.6 3.2 0.00 0.00 0.00 93 1021.0
20260507122854 14 196 1.6 3.2 0.00 0.00 0.00 92 1021.4
20260507122349 15 226 0.0 1.6 0.00 0.00 0.00 92 1021.1
20260507121845 15 213 0.0 0.0 0.00 0.00 0.00 92 1021.4
20260507121341 14 225 0.0 1.6 0.00 0.00 0.00 92 1021.4
20260507120838 14 220 1.6 1.6 0.00 0.00 0.00 92 1021.2
20260507120334 15 197 0.0 1.6 0.00 0.00 0.00 92 1020.8
20260507115831 14 245 0.0 1.6 0.00 0.00 0.00 92 1020.7
20260507115326 15 224 1.6 3.2 0.00 0.00 0.00 92 1020.7
20260507114822 15 199 1.6 3.2 0.00 0.00 0.00 92 1020.6
20260507114320 15 237 0.0 0.0 0.00 0.00 0.00 92 1021.0
20260507113817 15 267 1.6 1.6 0.00 0.00 0.00 92 1020.4
20260507113314 15 334 1.6 1.6 0.00 0.00 0.00 92 1020.4
20260507112811 15 226 0.0 0.0 0.00 0.00 0.00 92 1020.5
20260507112308 15 242 0.0 1.6 0.00 0.00 0.00 92 1020.2
20260507111806 15 201 1.6 1.6 0.00 0.00 0.00 92 1020.0
20260507111302 15 235 0.0 1.6 0.00 0.00 0.00 91 1020.3
20260507110758 15 216 1.6 1.6 0.00 0.00 0.00 92 1020.4
20260507110255 15 214 0.0 0.0 0.00 0.00 0.00 92 1020.2
20260507105752 15 225 1.6 1.6 0.00 0.00 0.00 92 1020.6
20260507105248 15 235 0.0 0.0 0.00 0.00 0.00 91 1020.3
20260507104745 15 212 1.6 1.6 0.00 0.00 0.00 91 1020.3
20260507104242 15 214 1.6 1.6 0.00 0.00 0.00 92 1020.5
20260507103738 15 223 1.6 1.6 0.00 0.00 0.00 92 1020.6
20260507103234 15 254 0.0 0.0 0.00 0.00 0.00 92 1020.4
20260507102731 15 227 1.6 1.6 0.00 0.00 0.00 91 1020.3
20260507102228 15 229 1.6 1.6 0.00 0.00 0.00 91 1019.9
20260507101723 15 213 0.0 0.0 0.00 0.00 0.00 91 1019.9
20260507101219 15 219 1.6 1.6 0.00 0.00 0.00 91 1019.7
20260507100716 15 255 1.6 1.6 0.00 0.00 0.00 91 1020.0
20260507100215 15 221 0.0 0.0 0.00 0.00 0.00 91 1019.8
20260507095712 15 240 0.0 0.0 0.00 0.00 0.00 91 1019.8
20260507095209 15 265 1.6 3.2 0.00 0.00 0.00 91 1019.7
20260507094705 15 215 0.0 0.0 0.00 0.00 0.00 91 1019.8
20260507094202 15 224 0.0 1.6 0.00 0.00 0.00 91 1019.7
20260507093659 15 258 0.0 0.0 0.00 0.00 0.00 91 1019.9
20260507093158 15 238 0.0 0.0 0.00 0.00 0.00 91 1019.8
20260507092655 15 236 0.0 0.0 0.00 0.00 0.00 90 1019.6
20260507092151 15 244 0.0 0.0 0.00 0.00 0.00 91 1019.8
20260507091648 15 244 0.0 0.0 0.00 0.00 0.00 90 1019.6
20260507091144 15 260 0.0 1.6 0.00 0.00 0.00 90 1019.6
20260507090639 15 259 0.0 0.0 0.00 0.00 0.00 90 1019.9
20260507090137 15 238 0.0 0.0 0.00 0.00 0.00 90 1019.6
20260507085634 15 245 0.0 0.0 0.00 0.00 0.00 90 1019.3
20260507085130 15 210 0.0 0.0 0.00 0.00 0.00 90 1019.2
20260507084627 15 244 0.0 0.0 0.00 0.00 0.00 90 1019.3
20260507084124 15 220 0.0 1.6 0.00 0.00 0.00 90 1019.3
20260507083621 15 201 0.0 0.0 0.00 0.00 0.00 90 1018.9
20260507083118 15 200 0.0 0.0 0.00 0.00 0.00 90 1019.1
20260507082614 15 241 0.0 0.0 0.00 0.00 0.00 90 1019.3
20260507082110 15 241 0.0 0.0 0.00 0.00 0.00 90 1019.1
20260507081607 15 241 0.0 1.6 0.00 0.00 0.00 89 1019.0
20260507081104 15 242 0.0 0.0 0.00 0.00 0.00 89 1019.1
20260507080600 15 243 0.0 0.0 0.00 0.00 0.00 88 1018.8
20260507080056 15 243 1.6 1.6 0.00 0.00 0.00 88 1018.9
20260507075551 16 214 0.0 0.0 0.00 0.00 0.00 88 1018.8
20260507075048 16 213 1.6 1.6 0.00 0.00 0.00 88 1018.9
20260507074545 15 245 0.0 0.0 0.00 0.00 0.00 88 1018.6
20260507074043 16 197 0.0 0.0 0.00 0.00 0.00 88 1018.7
20260507073539 16 219 0.0 0.0 0.00 0.00 0.00 88 1018.7
20260507073036 16 223 0.0 0.0 0.00 0.00 0.00 87 1018.8
20260507072533 16 196 0.0 0.0 0.00 0.00 0.00 87 1018.9
20260507072030 16 208 1.6 1.6 0.00 0.00 0.00 87 1018.8
20260507071527 16 175 6.4 8.0 0.00 0.00 0.00 87 1019.0
20260507071024 16 249 1.6 1.6 0.00 0.00 0.00 87 1018.6
20260507070521 16 199 0.0 1.6 0.00 0.00 0.00 87 1018.4
20260507070018 16 202 0.0 0.0 0.00 0.00 0.00 87 1018.6
20260507065514 16 207 0.0 0.0 0.00 0.00 0.00 87 1018.9
20260507065012 16 217 1.6 1.6 0.00 0.00 0.00 87 1018.7
20260507064509 16 226 0.0 1.6 0.00 0.00 0.00 87 1018.4
20260507064008 16 264 0.0 0.0 0.00 0.00 0.00 87 1018.6
20260507063504 16 182 6.4 8.0 0.00 0.00 0.00 87 1018.5
20260507063002 16 239 0.0 1.6 0.00 0.00 0.00 87 1018.5
20260507062458 16 203 0.0 0.0 0.00 0.00 0.00 87 1018.5
20260507061956 16 217 0.0 0.0 0.00 0.00 0.00 87 1018.2
20260507061453 16 234 0.0 0.0 0.00 0.00 0.00 87 1018.6
20260507060952 16 234 0.0 0.0 0.00 0.00 0.00 86 1018.9
20260507060448 16 218 0.0 1.6 0.00 0.00 0.00 86 1018.9
20260507055945 16 218 1.6 3.2 0.00 0.00 0.00 86 1018.3
20260507055440 16 203 1.6 3.2 0.00 0.00 0.00 86 1018.6
20260507054937 16 183 3.2 3.2 0.00 0.00 0.00 86 1019.0
20260507054433 16 211 0.0 0.0 0.00 0.00 0.00 85 1018.7
20260507053931 16 207 3.2 4.8 0.00 0.00 0.00 85 1018.9
20260507053428 16 174 3.2 4.8 0.00 0.00 0.00 85 1018.6
20260507052927 16 215 3.2 4.8 0.00 0.00 0.00 86 1018.5
20260507052424 16 205 0.0 0.0 0.00 0.00 0.00 85 1018.6
20260507051920 16 207 0.0 1.6 0.00 0.00 0.00 86 1018.2
20260507051418 16 211 3.2 4.8 0.00 0.00 0.00 86 1018.5
20260507050915 16 214 1.6 3.2 0.00 0.00 0.00 86 1018.4
20260507050411 16 234 0.0 0.0 0.00 0.00 0.00 86 1018.4
20260507045908 16 222 0.0 1.6 0.00 0.00 0.00 86 1018.2
20260507045405 16 206 1.6 4.8 0.00 0.00 0.00 87 1018.4
20260507044902 16 216 0.0 0.0 0.00 0.00 0.00 87 1018.5
20260507044359 16 220 0.0 0.0 0.00 0.00 0.00 88 1018.5